Miscellaneous Local Product
Issued by NWS Hastings, NE

Home | Current Version | Previous Version | Text Only | Print | Product List | Glossary Off
Versions: 1 2 3 4 5 6 7 8 9 10 11 12 13 14 15 16 17 18 19 20 21 22 23 24 25 26 27 28 29 30 31 32 33 34 35 36 37 38 39 40 41 42 43 44 45 46 47 48 49 50

000
AXUS43 KGID 101402
MISGRI

GID CWA HOURLY WEATHER ROUNDUP
NATIONAL WEATHER SERVICE HASTINGS NE
900 AM CDT THU JUL 10 2014

NOTE: "FAIR" INDICATES FEW OR NO CLOUDS BELOW 12,000 FEET WITH NO
SIGNIFICANT WEATHER AND/OR OBSTRUCTIONS TO VISIBILITY.

...SOUTH CENTRAL NEBRASKA...

CITY           SKY/WX    TMP DP  RH WIND       PRES   REMARKS
GRAND ISLAND   MOSUNNY   70  63  78 SE8       30.01R
HASTINGS       MOSUNNY   69  61  75 S7        30.00R
KEARNEY        MOSUNNY   70  64  83 SE6       30.01R
ORD            MOSUNNY   67  62  84 SE10      29.99R
YORK           MOSUNNY   70  66  88 SE13      30.01S
AURORA         MOSUNNY   70  66  88 SE12      30.01R
LEXINGTON      SUNNY     71  65  81 SW6       29.99F
HOLDREGE       SUNNY     70  64  81 S5        30.00S
HEBRON         PTSUNNY   73  64  75 SE10      30.00R

...NEBRASKA PANHANDLE...

CITY           SKY/WX    TMP DP  RH WIND       PRES   REMARKS
CHADRON        PTSUNNY   68  60  75 S17       29.89F
ALLIANCE       MOSUNNY   66  60  81 S13       29.98R
SCOTTSBLUFF    SUNNY     65  57  75 E7        29.97S
SIDNEY         MOSUNNY   66  59  78 S17G24    30.02S

...WESTERN AND NORTH CENTRAL NEBRASKA...

CITY           SKY/WX    TMP DP  RH WIND       PRES   REMARKS
VALENTINE      PTSUNNY   70  62  76 SW15      29.96R
AINSWORTH      MOSUNNY   67  63  87 S9        29.98R
ONEILL         CLOUDY    68  61  77 S9        30.00R
BROKEN BOW     SUNNY     69  64  84 SE8       29.99S
IMPERIAL       CLOUDY    68  62  81 S15       30.00R
NORTH PLATTE   CLOUDY    67  62  84 S16       30.00S
MCCOOK         SUNNY     71  63  75 S17G23    30.00R

...EASTERN NEBRASKA...

CITY           SKY/WX    TMP DP  RH WIND       PRES   REMARKS
NORFOLK        SUNNY     72  63  73 SE14      30.00F
SO SIOUX CITY  PTSUNNY   68  63  84 SE7       30.04S
TEKAMAH        PTSUNNY   70  64  81 SE9       30.04S
ALBION         SUNNY     67  62  84 SE13      30.00F
OMAHA EPPLEY   PTSUNNY   71  61  70 SE12      30.05S
OFFUTT AFB     MOSUNNY   70  66  87 SE9       30.05S
MILLARD        PTSUNNY   72  64  74 E12       30.04S
LINCOLN        PTSUNNY   75  64  68 SE15      30.03S
NEBRASKA CITY  PTSUNNY   71  62  71 SE13      30.05S
BEATRICE       PTSUNNY   69  63  80 SE10G16   30.02R
FALLS CITY     PTSUNNY   73  62  68 SE14      30.06R

...NORTHERN KANSAS...

CITY           SKY/WX    TMP DP  RH WIND       PRES   REMARKS
GOODLAND       CLOUDY    65  62  90 S21       30.03F
HILL CITY      SUNNY     71  63  75 S15       29.99R
NORTON         SUNNY     73  59  60 S14       29.98S
PHILLIPSBURG   SUNNY     72  63  73 S7        29.99R
SMITH CENTER   MOSUNNY   68  64  88 SE5       30.00R
HAYS           MOSUNNY   70  61  73 S17G23    29.99S
RUSSELL        PTSUNNY   72  63  73 S20G26    29.94R
CONCORDIA      PTSUNNY   71  67  87 S13       30.01R
SALINA         PTSUNNY   70  65  84 S8        29.99R
TOPEKA         PTSUNNY   75  65  70 SE9       30.06R



USA.gov is the U.S. government's official web portal to all federal, state and local government web resources and services.